Location: Newark
(38.8667°N, 6.9667°W)
Time: 01:39:01
(UTC+00:00)

ISS - Pass Details

Date: 01 November 2019
Orbit: 412 x 421 km, 51.6° (Epoch: 13 November)

Event Time Altitude Azimuth Distance (km) Brightness Sun altitude
Exits shadow 04:45:38 11° 22° (NNE) 1,467 -0.8 -25.6°
Drops below altitude 10° 04:45:47 10° 24° (NNE) 1,507 -0.7 -25.5°
Sets 04:48:20 0° 44° (NE) 2,372 0.7 -25.0°
